Погода в Чинандеге

Никарагуа     12°37′32″N   87°07′49″W
темп.,
°C
ветер,
м/с
пор.,
м/с
влажн.,
%
обл.,
%
осадки,
мм/ч
давл.,
гПа
погр.,
м
12 апреля, пн
пн1200:00+27з117736 0.1 100947
03:00+25всв008248 0.0 100711
06:00+25всв118231 0.0 100927
09:00+33ююв114967 0.0 10101429
12:00+32юз435599 0.1 1008977
15:00+34юз54478 0.1 10051347
18:00+29зюз3466100 0.1 1006464
21:00+27зюз128050 0.7 101063
13 апреля, вт
вт1300:00+26сз1284100 1.3 100937
03:00+26св1186100 0.6 100812
06:00+26юв118473 0.6 101020
09:00+32вюв0154100 0.0 10111215
12:00+36юз143863 0.0 10092194
15:00+34юз444830 0.0 1006813
18:00+30юз456293 0.0 1008446
21:00+28з237435 0.6 1011134
14 апреля, ср
ср1400:00+27зюз11744 0.8 101012
03:00+26ссз007724 0.1 100911
06:00+26с1177100 0.1 101126
09:00+32св235095 0.0 10121340
12:00+37вюв2429100 0.0 10102310
15:00+36зюз3431100 0.0 10071952
18:00+30юз34537 0.0 1008278
21:00+28з25735 0.0 1011226
15 апреля, чт
чт1500:00+27зюз118167 0.1 101020
03:00+26юз1182100 0.0 100911
06:00+26всв008128 0.0 101032
09:00+34вюв024544 0.0 10111581
12:00+37ююз343674 0.0 10092430
15:00+34юз53460 0.0 10061152
18:00+29зюз36650 0.0 1007503
21:00+27зюз24793 0.9 1010151
16 апреля, пт
пт1600:00+27зюз13796 1.8 101091
03:00+26юз117925 0.3 100812
06:00+26в017710 0.5 101023
09:00+33юв014717 0.0 10111337
12:00+35зюз334071 0.0 10081982
15:00+34юз534582 0.0 10061521
18:00+29юз356410 0.4 1007582
21:00+28юз237245 0.6 1010184